Regional Weather Roundup
Issued by NWS Portland, ME

Home | Current Version | Previous Version | Text Only | Print | Product List | Glossary On
Versions: 1 2 3 4 5 6 7 8 9 10 11 12 13 14 15 16 17 18 19 20 21 22 23 24 25 26 27 28 29 30 31 32 33 34 35 36 37 38 39 40 41 42 43 44 45 46 47 48 49 50
000
ASUS41 KGYX 011810
RWRGYX
WEATHER ROUNDUP FOR MAINE AND NEW HAMPSHIRE
NATIONAL WEATHER SERVICE GRAY ME
200 PM EDT WED APR 01 2015

MEZ002-005-006-010-012-015-018-020-021-024-026-027-029-011900-
MAINE

CITY           SKY/WX    TMP DP  RH WIND       PRES   REMARKS
PORTLAND       MOSUNNY   42   7  23 NW18G24   29.96S
6HR MIN TEMP:  32; 6HR MAX TEMP:  43;

SANFORD        SUNNY     39   9  28 W12G17    29.96R
BAR HARBOR     SUNNY     36   3  25 NW17G25   29.88S
WISCASSET      SUNNY     39   1  20 N8G17     29.95S
6HR MIN TEMP:  28; 6HR MAX TEMP:  40;

ROCKLAND       SUNNY     36   7  30 NW12G20   29.90F
FRYEBURG       MOSUNNY   39   2  21 N9        29.95S
6HR MIN TEMP:  26; 6HR MAX TEMP:  40; 6HR PCP: TRACE;

LEWISTONAUBURN MOSUNNY   36   3  25 NW13G25   29.95S
AUGUSTA        SUNNY     36   3  25 NW15G26   29.92S
6HR MIN TEMP:  25; 6HR MAX TEMP:  37;

WATERVILLE     SUNNY     36   7  30 NW15G25   29.90S
BANGOR         MOSUNNY   33   7  33 NW21G29   29.90S
6HR MIN TEMP:  24; 6HR MAX TEMP:  33;

GREENVILLE       N/A     26  -2  29 NW22G31   29.84S WCI  12
6HR MIN TEMP:  14; 6HR MAX TEMP:  26;

MILLINOCKET    MIX PCPN  30   6  36 NW16      29.89F WCI  19
6HR MIN TEMP:  21; 6HR MAX TEMP:  30; 6HR PCP: TRACE;

HOULTON        FAIR      28   0  29 NW13G22   29.85S WCI  17
6HR MIN TEMP:  19; 6HR MAX TEMP:  28;

PRESQUE ISLE   FAIR      27   1  33 NW12G22   29.87S WCI  16
6HR MIN TEMP:  18; 6HR MAX TEMP:  27;

FRENCHVILLE    FAIR      20   0  41 NW22G31   29.83F WCI   3
6HR MIN TEMP:  11; 6HR MAX TEMP:  20;

CARIBOU        FAIR      24   2  38 NW17G25   29.85F WCI  11
6HR MIN TEMP:  15; 6HR MAX TEMP:  24;

$$

NHZ002-005-008-009-011-012-014-011900-
NEW HAMPSHIRE

CITY           SKY/WX    TMP DP  RH WIND       PRES   REMARKS
PORTSMOUTH     MOSUNNY   42   7  23 NW16      29.95S
ROCHESTER      SUNNY     41   9  26 NW20      29.96R
6HR MIN TEMP:  28; 6HR MAX TEMP:  41;

NASHUA         SUNNY     44   6  21 NW17G23   30.00R
MANCHESTER     MOSUNNY   43   8  23 NW15G22   29.99R
6HR MIN TEMP:  30; 6HR MAX TEMP:  43;

CONCORD        SUNNY     42   7  23 NW16G23   30.00R
6HR MIN TEMP:  30; 6HR MAX TEMP:  42;

LACONIA          N/A    N/A N/A N/A MISG        N/A
PLYMOUTH       FAIR      36  13  38 NW10G20   30.00F
BERLIN         SUNNY     32   0  25 NW13G22   29.94F
6HR MIN TEMP:  14; 6HR MAX TEMP:  32;

WHITEFIELD     SUNNY     32   3  29 W13G22    29.98F
6HR MIN TEMP:  13; 6HR MAX TEMP:  32;

JAFFREY        SUNNY     38   5  25 NW9       29.97R
6HR MIN TEMP:  26; 6HR MAX TEMP:  39;

KEENE          SUNNY     39   7  26 NW12G20   30.02R
LEBANON        SUNNY     39   4  23 N16G25    30.02R
6HR MIN TEMP:  22; 6HR MAX TEMP:  40;

MT WASHINGTON  PTSUNNY    3  -6  66 NW47G56     N/A  WCI -26
6HR MIN TEMP:  -3; 6HR MAX TEMP:   3;

$$

VTZ005-007-008-011900-
VERMONT

CITY           SKY/WX    TMP DP  RH WIND       PRES   REMARKS
ST JOHNSBURY     N/A     34   3  27 MISG      30.01R
MONTPELIER     SUNNY     29   3  33 W10G23    30.06S WCI  20
BURLINGTON     MOSUNNY   35   3  26 N8G17     30.10S
$$

MAZ007-012-024-CTZ003-RIZ002-NYZ038-NYZ072-011900-
SOUTHERN NEW ENGLAND AND NY

CITY           SKY/WX    TMP DP  RH WIND       PRES   REMARKS
BOSTON         MOSUNNY   44   7  21 NW17G26   29.99S
WORCESTER      MOSUNNY   42   4  20 NW15      29.96S
NANTUCKET      SUNNY     41  17  38 N16       29.99R
PROVIDENCE     MOSUNNY   48   5  17 NW12      30.00R
HARTFORD       PTSUNNY   48   4  16 NW10G18   30.02R
ALBANY         MOSUNNY   44   5  20 W12       30.07S
NEW YORK CITY  PTSUNNY   45  18  34 NW10      30.08S
$$

ANZ081-ANZ082-ANZ150-NHZ014-MEZ023>029-011900-
COASTAL MARINE OBSERVATIONS

STATION/POSITION TIME  TEMP    WIND        PRES    WAVE
                       AIR SEA DIR/SP/G            HT/PER
                 (UTC) (F)     (DEG/KT/KT) (MB)    (FT/S)
MOUNT DESERT ROC 1800   32                 1011.7R
MATINICUS ROCK   1700   32     330/ 19/ 21 1012.8S
WELLS            1700   40 35  330/ 11/ 17 1013.4F
ISLE OF SHOALS   1700   36     360/ 10/ 12 1014.0S
JEFFREYS LEDGE   1721      40                N/A     3/ 5
CASHES LEDGE BUO 1750   34 38              1013.6R   3/ 5
$$

.............KEY..............
   WCI - WIND CHILL
   TC  - TEMPERATURE IN CELSIUS
   VSB - VISIBILITY IN MILES
   HX  - HEAT INDEX
   FAIR- INDICATES FEW OR NO CLOUDS BELOW 12,000 FT, WITH NO
         SIGNIFICANT WEATHER AND/OR OBSTRUCTIONS TO VISIBILITY.





USA.gov is the U.S. government's official web portal to all federal, state and local government web resources and services.